TimeCST,TemperatureF,Dew PointF,Humidity,Sea Level PressureIn,VisibilityMPH,Wind Direction,Wind SpeedMPH,Gust SpeedMPH,PrecipitationIn,Events,Conditions,WindDirDegrees,DateUTC
12:54 AM,23.0,10.0,58,30.35,10.0,NW,9.2,-,N/A,,Clear,320,2013-01-21 06:54:00
1:54 AM,21.9,10.0,60,30.35,10.0,NW,9.2,-,N/A,,Clear,320,2013-01-21 07:54:00
2:54 AM,21.9,10.9,63,30.35,10.0,NW,6.9,-,N/A,,Clear,310,2013-01-21 08:54:00
3:52 AM,21.2,10.4,63,30.34,10.0,NW,21.9,32.2,N/A,,Mostly Cloudy,320,2013-01-21 09:52:00
3:54 AM,21.0,10.0,63,30.37,10.0,NW,23.0,32.2,N/A,,Mostly Cloudy,320,2013-01-21 09:54:00
4:03 AM,19.4,10.4,68,30.34,10.0,NW,11.5,-,N/A,,Scattered Clouds,310,2013-01-21 10:03:00
4:54 AM,19.0,8.1,62,30.37,10.0,WNW,8.1,-,N/A,,Clear,290,2013-01-21 10:54:00
5:54 AM,19.0,10.0,68,30.38,10.0,WNW,10.4,-,N/A,,Clear,290,2013-01-21 11:54:00
6:54 AM,19.0,8.1,62,30.38,10.0,West,10.4,17.3,N/A,,Mostly Cloudy,280,2013-01-21 12:54:00
7:54 AM,19.0,6.1,57,30.38,10.0,WNW,9.2,-,N/A,,Scattered Clouds,290,2013-01-21 13:54:00
8:54 AM,21.0,5.0,50,30.39,10.0,WNW,16.1,-,N/A,,Partly Cloudy,290,2013-01-21 14:54:00
9:54 AM,21.9,5.0,48,30.39,10.0,WNW,18.4,25.3,N/A,,Partly Cloudy,300,2013-01-21 15:54:00
10:54 AM,25.0,3.9,41,30.39,10.0,WNW,15.0,28.8,N/A,,Partly Cloudy,300,2013-01-21 16:54:00
11:54 AM,26.1,3.9,39,30.37,10.0,WNW,13.8,-,N/A,,Partly Cloudy,300,2013-01-21 17:54:00
12:54 PM,27.0,1.0,33,30.35,10.0,WNW,15.0,24.2,N/A,,Mostly Cloudy,290,2013-01-21 18:54:00
1:54 PM,25.0,-4.0,28,30.37,10.0,NNW,15.0,26.5,N/A,,Mostly Cloudy,330,2013-01-21 19:54:00
2:54 PM,21.0,-5.1,32,30.39,10.0,NW,16.1,24.2,N/A,,Overcast,320,2013-01-21 20:54:00
3:54 PM,19.9,-4.0,35,30.40,10.0,NW,13.8,-,N/A,,Overcast,310,2013-01-21 21:54:00
4:54 PM,19.4,-4.0,36,30.36,10.0,NW,10.4,-,N/A,,Overcast,310,2013-01-21 22:54:00
5:54 PM,18.0,-2.9,40,30.42,10.0,NW,11.5,-,N/A,,Overcast,320,2013-01-21 23:54:00
6:54 PM,18.0,-2.9,40,30.42,10.0,NNW,8.1,-,N/A,,Overcast,330,2013-01-22 00:54:00
7:54 PM,18.0,-2.9,40,30.42,10.0,NW,9.2,-,N/A,,Overcast,320,2013-01-22 01:54:00
8:54 PM,17.1,-4.0,39,30.42,10.0,NW,11.5,-,N/A,,Overcast,320,2013-01-22 02:54:00
9:54 PM,16.0,-4.0,41,30.43,10.0,WNW,8.1,-,N/A,,Overcast,300,2013-01-22 03:54:00
10:54 PM,16.0,-0.9,47,30.44,10.0,NNW,9.2,-,N/A,,Overcast,330,2013-01-22 04:54:00
11:54 PM,16.0,-2.0,45,30.44,10.0,NNW,5.8,-,N/A,,Overcast,330,2013-01-22 05:54:00